Location: *
(43.9900°N, 3.4811°E)
Time: 02:01:05
(UTC+00:00)

Iridium 2 - Pass Details

Date: 25 August 2019
Orbit: 505 x 517 km, 85.5° (Epoch: 23 October)

Event Time Altitude Azimuth Distance (km) Brightness Sun altitude
Exits shadow 20:13:17 30° 163° (SSE) 920 4.5 -16.9°
Maximum altitude 20:14:57 64° 92° (E) 564 3.6 -17.1°
Drops below altitude 10° 20:18:41 10° 10° (N) 1,732 6.7 -17.7°
Sets 20:20:50 0° 8° (N) 2,624 7.7 -18.0°
